Location: Hannover
(52.4091°N, 9.7504°E)
Time: 16:19:38
(UTC+01:00)

ISS - Pass Details

Date: 14 November 2025
Orbit: 416 x 420 km, 51.6° (Epoch: 12 December)

Event Time Altitude Azimuth Distance (km) Brightness Sun altitude
Rises 18:54:14 0° 222° (SW) 2,361 0.7 -21.9°
Reaches altitude 10° 18:56:31 10° 210° (SSW) 1,498 -0.6 -22.2°
Enters shadow 18:57:53 19° 193° (SSW) 1,066 -1.6 -22.4°
